Time,TemperatureF,DewpointF,PressureIn,WindDirection,WindDirectionDegrees,WindSpeedMPH,WindSpeedGustMPH,Humidity,HourlyPrecipIn,Conditions,Clouds,dailyrainin,SoftwareType,DateUTC
2013-02-20 00:01:00,58.8,36.2,29.87,ENE,68,6.0,6.0,43,0.00,,,0.00,WUHU216HW,2013-02-20 06:01:00,
2013-02-20 00:06:00,58.8,36.2,29.86,East,90,4.2,6.4,43,0.00,,,0.00,WUHU216HW,2013-02-20 06:06:00,
2013-02-20 00:11:00,58.8,36.2,29.85,ESE,113,7.8,7.8,43,0.00,,,0.00,WUHU216HW,2013-02-20 06:11:00,
2013-02-20 00:16:00,58.8,35.6,29.85,SE,135,3.5,7.8,42,0.00,,,0.00,WUHU216HW,2013-02-20 06:16:00,
2013-02-20 00:21:00,58.8,35.6,29.85,SE,135,7.3,7.3,42,0.00,,,0.00,WUHU216HW,2013-02-20 06:21:00,
2013-02-20 00:26:00,58.8,35.6,29.84,East,90,4.9,7.3,42,0.00,,,0.00,WUHU216HW,2013-02-20 06:26:00,
2013-02-20 00:31:00,58.6,36.1,29.84,ENE,68,4.2,7.3,43,0.00,,,0.00,WUHU216HW,2013-02-20 06:31:00,
2013-02-20 00:36:00,58.6,36.6,29.82,SE,135,7.3,7.8,44,0.00,,,0.00,WUHU216HW,2013-02-20 06:36:00,
2013-02-20 00:41:00,58.6,36.1,29.82,ESE,113,7.3,8.9,43,0.00,,,0.00,WUHU216HW,2013-02-20 06:41:00,
2013-02-20 00:46:00,58.6,36.1,29.82,SE,135,12.0,12.0,43,0.00,,,0.00,WUHU216HW,2013-02-20 06:46:00,
2013-02-20 00:51:00,58.4,35.9,29.82,ESE,113,10.7,12.0,43,0.00,,,0.00,WUHU216HW,2013-02-20 06:51:00,
2013-02-20 00:56:00,58.4,35.9,29.83,SE,135,5.5,12.0,43,0.00,,,0.00,WUHU216HW,2013-02-20 06:56:00,
2013-02-20 01:01:00,58.4,35.9,29.82,ESE,113,1.3,10.7,43,0.00,,,0.00,WUHU216HW,2013-02-20 07:01:00,
2013-02-20 01:06:00,58.2,35.7,29.82,ESE,113,6.4,6.4,43,0.00,,,0.00,WUHU216HW,2013-02-20 07:06:00,
2013-02-20 01:11:00,58.2,36.3,29.82,SE,135,8.0,8.0,44,0.00,,,0.00,WUHU216HW,2013-02-20 07:11:00,
2013-02-20 01:16:00,58.2,36.3,29.82,ESE,113,5.5,9.6,44,0.00,,,0.00,WUHU216HW,2013-02-20 07:16:00,
2013-02-20 01:21:00,58.1,36.1,29.84,ESE,113,6.4,9.6,44,0.00,,,0.00,WUHU216HW,2013-02-20 07:21:00,
2013-02-20 01:26:00,58.1,36.1,29.84,ESE,113,4.0,8.5,44,0.00,,,0.00,WUHU216HW,2013-02-20 07:26:00,
2013-02-20 01:31:00,58.1,36.1,29.84,SE,135,4.9,10.7,44,0.00,,,0.00,WUHU216HW,2013-02-20 07:31:00,
2013-02-20 01:36:00,57.9,36.0,29.84,ESE,113,5.3,10.7,44,0.00,,,0.00,WUHU216HW,2013-02-20 07:36:00,
2013-02-20 01:41:00,58.1,36.7,29.82,ESE,113,8.2,9.1,45,0.00,,,0.00,WUHU216HW,2013-02-20 07:41:00,
2013-02-20 01:46:00,57.9,36.6,29.81,ESE,113,8.9,8.9,45,0.00,,,0.00,WUHU216HW,2013-02-20 07:46:00,
2013-02-20 01:51:00,57.9,36.0,29.82,SE,135,9.1,11.6,44,0.00,,,0.00,WUHU216HW,2013-02-20 07:51:00,
2013-02-20 01:56:00,57.9,36.0,29.82,ESE,113,3.8,11.6,44,0.00,,,0.00,WUHU216HW,2013-02-20 07:56:00,
2013-02-20 02:05:00,57.7,36.4,29.82,NE,45,8.9,10.5,45,0.00,,,0.00,WUHU216HW,2013-02-20 08:05:00,
2013-02-20 02:10:00,57.7,36.4,29.82,East,90,9.3,12.0,45,0.00,,,0.00,WUHU216HW,2013-02-20 08:10:00,
2013-02-20 02:15:00,57.5,36.2,29.81,SE,135,7.8,13.1,45,0.00,,,0.00,WUHU216HW,2013-02-20 08:15:00,
2013-02-20 02:20:00,57.5,36.8,29.81,East,90,7.8,13.1,46,0.00,,,0.00,WUHU216HW,2013-02-20 08:20:00,
2013-02-20 02:25:00,57.3,36.1,29.82,SE,135,7.3,8.2,45,0.00,,,0.00,WUHU216HW,2013-02-20 08:25:00,
2013-02-20 02:30:00,57.3,36.1,29.82,ESE,113,10.9,10.9,45,0.00,,,0.00,WUHU216HW,2013-02-20 08:30:00,
2013-02-20 02:35:00,57.3,36.1,29.81,ESE,113,6.7,10.9,45,0.00,,,0.00,WUHU216HW,2013-02-20 08:35:00,
2013-02-20 02:40:00,57.3,36.1,29.82,ESE,113,10.9,10.9,45,0.00,,,0.00,WUHU216HW,2013-02-20 08:40:00,
2013-02-20 02:45:00,57.2,35.9,29.81,ESE,113,7.6,10.9,45,0.00,,,0.00,WUHU216HW,2013-02-20 08:45:00,
2013-02-20 02:50:00,57.0,36.3,29.82,ESE,113,6.7,10.9,44,0.00,,,0.00,WUHU216HW,2013-02-20 08:50:00,
2013-02-20 02:55:00,57.0,35.7,29.81,East,90,6.2,9.1,45,0.00,,,0.00,WUHU216HW,2013-02-20 08:55:00,
2013-02-20 03:00:00,57.0,35.7,29.81,East,90,8.7,11.8,45,0.00,,,0.00,WUHU216HW,2013-02-20 09:00:00,
2013-02-20 03:05:00,57.0,35.7,29.80,SE,135,6.9,16.1,45,0.00,,,0.00,WUHU216HW,2013-02-20 09:05:00,
2013-02-20 03:10:00,57.0,35.7,29.81,SE,135,4.6,16.1,45,0.00,,,0.00,WUHU216HW,2013-02-20 09:10:00,
2013-02-20 03:15:00,56.8,35.6,29.81,ESE,113,8.7,14.7,45,0.00,,,0.00,WUHU216HW,2013-02-20 09:15:00,
2013-02-20 03:20:00,56.8,35.6,29.80,ESE,113,11.4,14.7,45,0.00,,,0.00,WUHU216HW,2013-02-20 09:20:00,
2013-02-20 03:25:00,56.8,35.0,29.80,SE,135,6.2,11.4,44,0.00,,,0.00,WUHU216HW,2013-02-20 09:25:00,
2013-02-20 03:30:00,56.8,35.6,29.81,East,90,6.7,11.4,45,0.00,,,0.00,WUHU216HW,2013-02-20 09:30:00,
2013-02-20 03:35:00,56.8,35.6,29.79,NE,45,6.2,8.9,45,0.00,,,0.00,WUHU216HW,2013-02-20 09:35:00,
2013-02-20 03:40:00,56.8,35.0,29.78,ESE,113,7.1,8.9,44,0.00,,,0.00,WUHU216HW,2013-02-20 09:40:00,
2013-02-20 03:45:00,56.8,33.8,29.78,SE,135,7.6,8.7,42,0.00,,,0.00,WUHU216HW,2013-02-20 09:45:00,
2013-02-20 03:50:00,56.8,33.8,29.78,SE,135,7.3,12.9,42,0.00,,,0.00,WUHU216HW,2013-02-20 09:50:00,
2013-02-20 03:55:00,56.8,33.8,29.79,SSE,158,8.9,12.9,42,0.00,,,0.00,WUHU216HW,2013-02-20 09:55:00,
2013-02-20 04:00:00,56.8,33.8,29.80,ESE,113,10.0,10.0,42,0.00,,,0.00,WUHU216HW,2013-02-20 10:00:00,
2013-02-20 04:05:00,56.8,33.3,29.80,ESE,113,6.0,15.6,41,0.00,,,0.00,WUHU216HW,2013-02-20 10:05:00,
2013-02-20 04:10:00,56.8,33.3,29.79,SE,135,9.8,15.6,41,0.00,,,0.00,WUHU216HW,2013-02-20 10:10:00,
2013-02-20 04:15:00,56.8,33.3,29.78,ESE,113,12.7,12.7,41,0.00,,,0.00,WUHU216HW,2013-02-20 10:15:00,
2013-02-20 04:20:00,56.8,33.3,29.78,SE,135,11.1,12.7,41,0.00,,,0.00,WUHU216HW,2013-02-20 10:20:00,
2013-02-20 04:25:00,56.8,33.3,29.79,East,90,8.2,16.1,41,0.00,,,0.00,WUHU216HW,2013-02-20 10:25:00,
2013-02-20 04:30:00,56.4,32.9,29.78,East,90,5.3,16.1,41,0.00,,,0.00,WUHU216HW,2013-02-20 10:30:00,
2013-02-20 04:35:00,56.4,33.5,29.78,ESE,113,9.3,10.7,42,0.00,,,0.00,WUHU216HW,2013-02-20 10:35:00,
2013-02-20 04:40:00,56.4,33.5,29.77,ENE,68,10.7,10.7,42,0.00,,,0.00,WUHU216HW,2013-02-20 10:40:00,
2013-02-20 04:45:00,56.4,33.5,29.78,SE,135,9.6,10.7,42,0.00,,,0.00,WUHU216HW,2013-02-20 10:45:00,
2013-02-20 04:50:00,56.4,34.1,29.78,SE,135,4.0,10.7,43,0.00,,,0.00,WUHU216HW,2013-02-20 10:50:00,
2013-02-20 04:55:00,56.3,33.9,29.78,SE,135,10.5,10.5,43,0.00,,,0.00,WUHU216HW,2013-02-20 10:55:00,
2013-02-20 05:00:00,56.3,33.9,29.79,SSE,158,7.3,10.5,43,0.00,,,0.00,WUHU216HW,2013-02-20 11:00:00,
2013-02-20 05:05:00,56.3,33.9,29.80,East,90,10.2,13.8,43,0.00,,,0.00,WUHU216HW,2013-02-20 11:05:00,
2013-02-20 05:10:00,56.1,34.9,29.79,SSE,158,7.8,13.8,45,0.00,,,0.00,WUHU216HW,2013-02-20 11:10:00,
2013-02-20 05:15:00,56.1,34.9,29.78,ESE,113,15.8,15.8,45,0.00,,,0.00,WUHU216HW,2013-02-20 11:15:00,
2013-02-20 05:20:00,55.9,35.3,29.78,SE,135,8.2,19.6,46,0.00,,,0.00,WUHU216HW,2013-02-20 11:20:00,
2013-02-20 05:25:00,55.9,35.8,29.76,SSE,158,11.1,19.6,47,0.00,,,0.00,WUHU216HW,2013-02-20 11:25:00,
2013-02-20 05:32:00,55.9,35.8,29.75,ESE,113,8.0,11.4,47,0.00,,,0.00,WUHU216HW,2013-02-20 11:32:00,
2013-02-20 05:37:00,55.5,36.6,29.74,ENE,68,9.6,13.8,49,0.00,,,0.00,WUHU216HW,2013-02-20 11:37:00,
2013-02-20 05:42:00,55.4,36.4,29.74,East,90,8.2,13.8,49,0.00,,,0.00,WUHU216HW,2013-02-20 11:42:00,
2013-02-20 05:47:00,55.2,36.8,29.73,SE,135,10.7,10.7,50,0.00,,,0.00,WUHU216HW,2013-02-20 11:47:00,
2013-02-20 05:52:00,55.2,37.3,29.73,ESE,113,8.0,12.0,51,0.00,,,0.00,WUHU216HW,2013-02-20 11:52:00,
2013-02-20 05:57:00,55.0,37.1,29.74,ESE,113,6.7,12.0,51,0.00,,,0.00,WUHU216HW,2013-02-20 11:57:00,
2013-02-20 06:02:00,55.0,37.1,29.74,ESE,113,6.9,11.1,51,0.00,,,0.00,WUHU216HW,2013-02-20 12:02:00,
2013-02-20 06:07:00,55.0,38.1,29.74,East,90,9.1,11.1,53,0.00,,,0.00,WUHU216HW,2013-02-20 12:07:00,
2013-02-20 06:12:00,55.0,38.1,29.75,ENE,68,8.9,10.0,53,0.00,,,0.00,WUHU216HW,2013-02-20 12:12:00,
2013-02-20 06:17:00,55.0,38.1,29.74,ESE,113,6.9,9.1,53,0.00,,,0.00,WUHU216HW,2013-02-20 12:17:00,
2013-02-20 06:22:00,55.0,38.5,29.74,SE,135,8.5,9.8,54,0.00,,,0.00,WUHU216HW,2013-02-20 12:22:00,
2013-02-20 06:27:00,54.8,38.8,29.74,SE,135,6.0,9.8,55,0.00,,,0.00,WUHU216HW,2013-02-20 12:27:00,
2013-02-20 06:33:00,54.8,38.4,29.74,ESE,113,9.1,10.5,54,0.00,,,0.00,WUHU216HW,2013-02-20 12:33:00,
2013-02-20 06:38:00,54.8,38.8,29.73,ESE,113,14.0,14.0,55,0.00,,,0.00,WUHU216HW,2013-02-20 12:38:00,
2013-02-20 06:43:00,54.8,38.8,29.74,ESE,113,9.3,14.0,55,0.00,,,0.00,WUHU216HW,2013-02-20 12:43:00,
2013-02-20 06:48:00,54.8,39.8,29.73,SE,135,6.9,9.6,57,0.00,,,0.00,WUHU216HW,2013-02-20 12:48:00,
2013-02-20 06:53:00,54.8,39.8,29.73,East,90,14.3,14.3,57,0.00,,,0.00,WUHU216HW,2013-02-20 12:53:00,
2013-02-20 06:58:00,54.6,39.6,29.74,East,90,8.5,14.3,58,0.00,,,0.00,WUHU216HW,2013-02-20 12:58:00,
2013-02-20 07:03:00,54.8,40.2,29.75,ESE,113,12.3,14.3,58,0.00,,,0.00,WUHU216HW,2013-02-20 13:03:00,
2013-02-20 07:08:00,54.6,40.1,29.75,SE,135,5.8,12.3,58,0.00,,,0.00,WUHU216HW,2013-02-20 13:08:00,
2013-02-20 07:13:00,54.6,40.1,29.76,ESE,113,4.9,12.3,58,0.00,,,0.00,WUHU216HW,2013-02-20 13:13:00,
2013-02-20 07:18:00,54.6,40.1,29.76,ESE,113,8.5,8.7,58,0.00,,,0.00,WUHU216HW,2013-02-20 13:18:00,
2013-02-20 07:23:00,54.6,40.6,29.75,ESE,113,6.9,8.5,59,0.00,,,0.00,WUHU216HW,2013-02-20 13:23:00,
2013-02-20 07:28:00,54.8,40.7,29.73,SE,135,10.7,10.7,59,0.00,,,0.00,WUHU216HW,2013-02-20 13:28:00,
2013-02-20 07:33:00,54.6,41.0,29.73,East,90,9.1,10.7,60,0.00,,,0.00,WUHU216HW,2013-02-20 13:33:00,
2013-02-20 07:38:00,54.6,41.0,29.74,ENE,68,7.3,10.0,60,0.00,,,0.00,WUHU216HW,2013-02-20 13:38:00,
2013-02-20 07:43:00,54.6,41.0,29.73,ESE,113,11.1,11.1,60,0.00,,,0.00,WUHU216HW,2013-02-20 13:43:00,
2013-02-20 07:48:00,54.6,41.0,29.73,ESE,113,14.0,14.0,60,0.00,,,0.00,WUHU216HW,2013-02-20 13:48:00,
2013-02-20 07:53:00,54.6,41.0,29.73,ESE,113,6.4,14.0,60,0.00,,,0.00,WUHU216HW,2013-02-20 13:53:00,
2013-02-20 07:58:00,54.6,41.0,29.73,ESE,113,6.7,14.0,60,0.00,,,0.00,WUHU216HW,2013-02-20 13:58:00,
2013-02-20 08:03:00,54.6,41.0,29.74,ESE,113,8.0,14.7,60,0.00,,,0.00,WUHU216HW,2013-02-20 14:03:00,
2013-02-20 08:08:00,54.5,40.9,29.75,ESE,113,9.8,14.7,60,0.00,,,0.00,WUHU216HW,2013-02-20 14:08:00,
2013-02-20 08:13:00,54.5,40.9,29.76,ESE,113,6.2,9.8,60,0.00,,,0.00,WUHU216HW,2013-02-20 14:13:00,
2013-02-20 08:18:00,54.5,41.3,29.77,SE,135,4.9,6.2,61,0.00,,,0.00,WUHU216HW,2013-02-20 14:18:00,
2013-02-20 08:24:00,54.5,41.3,29.78,SE,135,10.0,10.0,61,0.00,,,0.00,WUHU216HW,2013-02-20 14:24:00,
2013-02-20 08:29:00,54.5,41.3,29.78,ESE,113,8.0,10.0,61,0.00,,,0.00,WUHU216HW,2013-02-20 14:29:00,
2013-02-20 08:34:00,54.5,41.3,29.79,East,90,2.4,8.0,61,0.00,,,0.00,WUHU216HW,2013-02-20 14:34:00,
2013-02-20 08:39:00,54.6,41.4,29.79,SE,135,4.6,8.0,61,0.00,,,0.00,WUHU216HW,2013-02-20 14:39:00,
2013-02-20 08:44:00,54.6,41.4,29.78,ESE,113,2.2,4.6,61,0.00,,,0.00,WUHU216HW,2013-02-20 14:44:00,
2013-02-20 08:49:00,54.6,41.8,29.79,ESE,113,2.4,4.6,62,0.00,,,0.00,WUHU216HW,2013-02-20 14:49:00,
2013-02-20 08:54:00,54.5,41.7,29.78,ESE,113,6.4,8.0,62,0.00,,,0.00,WUHU216HW,2013-02-20 14:54:00,
2013-02-20 08:59:00,54.6,41.8,29.78,East,90,7.1,8.0,62,0.00,,,0.00,WUHU216HW,2013-02-20 14:59:00,
2013-02-20 09:04:00,54.5,42.1,29.78,ENE,68,4.9,7.3,63,0.00,,,0.00,WUHU216HW,2013-02-20 15:04:00,
2013-02-20 09:09:00,54.6,42.5,29.77,ESE,113,6.7,9.6,64,0.00,,,0.00,WUHU216HW,2013-02-20 15:09:00,
2013-02-20 09:14:00,54.5,42.5,29.77,East,90,6.9,9.6,64,0.00,,,0.00,WUHU216HW,2013-02-20 15:14:00,
2013-02-20 09:20:00,54.3,42.7,29.77,East,90,5.5,12.0,65,0.00,,,0.00,WUHU216HW,2013-02-20 15:20:00,
2013-02-20 09:25:00,54.1,42.9,29.77,SE,135,7.3,12.0,66,0.00,,,0.00,WUHU216HW,2013-02-20 15:25:00,
2013-02-20 09:30:00,53.9,43.2,29.76,ESE,113,5.5,10.9,67,0.00,,,0.00,WUHU216HW,2013-02-20 15:30:00,
2013-02-20 09:35:00,53.9,43.2,29.76,ESE,113,6.0,8.7,67,0.00,,,0.00,WUHU216HW,2013-02-20 15:35:00,
2013-02-20 09:40:00,53.9,43.2,29.77,SE,135,9.3,9.3,67,0.00,,,0.00,WUHU216HW,2013-02-20 15:40:00,
2013-02-20 09:45:00,53.9,43.2,29.77,ESE,113,3.8,9.3,67,0.00,,,0.00,WUHU216HW,2013-02-20 15:45:00,
2013-02-20 09:50:00,53.9,43.2,29.76,ESE,113,4.2,6.4,67,0.00,,,0.00,WUHU216HW,2013-02-20 15:50:00,
2013-02-20 09:55:00,53.9,43.2,29.76,ESE,113,5.5,5.5,67,0.00,,,0.00,WUHU216HW,2013-02-20 15:55:00,
2013-02-20 10:00:00,53.7,43.0,29.75,SE,135,6.7,7.3,67,0.00,,,0.00,WUHU216HW,2013-02-20 16:00:00,
2013-02-20 10:05:00,53.7,43.0,29.75,ESE,113,7.6,7.6,67,0.00,,,0.00,WUHU216HW,2013-02-20 16:05:00,
2013-02-20 10:10:00,53.7,43.0,29.74,ESE,113,6.9,7.6,67,0.00,,,0.00,WUHU216HW,2013-02-20 16:10:00,
2013-02-20 10:15:00,53.9,43.2,29.74,ESE,113,8.0,8.0,68,0.00,,,0.00,WUHU216HW,2013-02-20 16:15:00,
2013-02-20 10:20:00,54.1,43.3,29.73,East,90,15.4,15.4,67,0.00,,,0.00,WUHU216HW,2013-02-20 16:20:00,
2013-02-20 10:25:00,54.1,43.3,29.73,ESE,113,9.3,15.4,67,0.00,,,0.00,WUHU216HW,2013-02-20 16:25:00,
2013-02-20 10:30:00,54.1,43.3,29.73,East,90,14.0,15.4,67,0.00,,,0.00,WUHU216HW,2013-02-20 16:30:00,
2013-02-20 10:35:00,54.3,43.9,29.73,ESE,113,7.8,14.0,68,0.00,,,0.00,WUHU216HW,2013-02-20 16:35:00,
2013-02-20 10:40:00,54.3,43.5,29.72,East,90,6.9,10.5,67,0.00,,,0.00,WUHU216HW,2013-02-20 16:40:00,
2013-02-20 10:45:00,54.3,43.5,29.73,SE,135,7.8,10.5,67,0.00,,,0.00,WUHU216HW,2013-02-20 16:45:00,
2013-02-20 10:50:00,54.5,43.7,29.73,SE,135,8.0,12.7,67,0.00,,,0.00,WUHU216HW,2013-02-20 16:50:00,
2013-02-20 10:55:00,54.5,43.7,29.73,ESE,113,3.8,12.7,67,0.00,,,0.00,WUHU216HW,2013-02-20 16:55:00,
2013-02-20 11:00:00,54.5,43.7,29.73,SE,135,5.8,8.0,67,0.00,,,0.00,WUHU216HW,2013-02-20 17:00:00,
2013-02-20 11:05:00,54.6,43.9,29.73,NE,45,6.9,8.0,67,0.00,,,0.00,WUHU216HW,2013-02-20 17:05:00,
2013-02-20 11:10:00,54.6,43.9,29.72,SE,135,8.7,9.1,67,0.00,,,0.00,WUHU216HW,2013-02-20 17:10:00,
2013-02-20 11:15:00,54.6,44.3,29.73,ENE,68,5.5,9.1,68,0.00,,,0.00,WUHU216HW,2013-02-20 17:15:00,
2013-02-20 11:20:00,54.6,44.3,29.73,ESE,113,9.3,12.3,68,0.00,,,0.00,WUHU216HW,2013-02-20 17:20:00,
2013-02-20 11:25:00,54.6,44.3,29.72,SE,135,5.5,12.3,68,0.00,,,0.00,WUHU216HW,2013-02-20 17:25:00,
2013-02-20 11:30:00,54.6,44.3,29.73,ENE,68,7.1,9.3,68,0.00,,,0.00,WUHU216HW,2013-02-20 17:30:00,
2013-02-20 11:35:00,54.8,44.4,29.73,SE,135,7.8,9.3,68,0.00,,,0.00,WUHU216HW,2013-02-20 17:35:00,
2013-02-20 11:40:00,54.8,44.4,29.72,SE,135,6.7,9.3,68,0.00,,,0.00,WUHU216HW,2013-02-20 17:40:00,
2013-02-20 11:45:00,55.0,44.6,29.72,ESE,113,8.9,8.9,68,0.00,,,0.00,WUHU216HW,2013-02-20 17:45:00,
2013-02-20 11:50:00,55.0,44.6,29.72,NE,45,6.4,8.9,68,0.00,,,0.00,WUHU216HW,2013-02-20 17:50:00,
2013-02-20 11:55:00,55.0,44.6,29.72,ENE,68,3.8,8.9,68,0.00,,,0.00,WUHU216HW,2013-02-20 17:55:00,
2013-02-20 12:00:00,54.8,44.9,29.71,ESE,113,6.2,7.8,69,0.00,,,0.00,WUHU216HW,2013-02-20 18:00:00,
2013-02-20 12:05:00,54.8,44.7,29.71,East,90,4.9,7.8,69,0.00,,,0.00,WUHU216HW,2013-02-20 18:05:00,
2013-02-20 12:10:00,54.8,44.9,29.71,ENE,68,6.2,7.3,69,0.00,,,0.00,WUHU216HW,2013-02-20 18:10:00,
2013-02-20 12:15:00,55.0,45.0,29.71,ESE,113,6.0,7.8,69,0.00,,,0.00,WUHU216HW,2013-02-20 18:15:00,
2013-02-20 12:22:00,55.0,45.5,29.69,ESE,113,12.7,12.7,70,0.00,,,0.00,WUHU216HW,2013-02-20 18:22:00,
2013-02-20 12:27:00,55.2,45.6,29.69,East,90,7.3,12.7,70,0.00,,,0.00,WUHU216HW,2013-02-20 18:27:00,
2013-02-20 12:31:00,55.2,45.6,29.68,ESE,113,6.2,8.0,70,0.00,,,0.00,WUHU216HW,2013-02-20 18:31:00,
2013-02-20 12:36:00,55.4,45.8,29.69,ESE,113,3.3,8.7,70,0.00,,,0.00,WUHU216HW,2013-02-20 18:36:00,
2013-02-20 12:41:00,55.5,46.3,29.68,ESE,113,3.3,8.7,71,0.00,,,0.00,WUHU216HW,2013-02-20 18:41:00,
2013-02-20 12:47:00,55.7,46.5,29.67,ENE,68,7.3,7.8,71,0.00,,,0.00,WUHU216HW,2013-02-20 18:47:00,
2013-02-20 12:51:00,55.7,46.5,29.67,ESE,113,5.1,7.8,71,0.00,,,0.00,WUHU216HW,2013-02-20 18:51:00,
2013-02-20 12:56:00,55.9,47.0,29.66,East,90,8.0,8.0,72,0.00,,,0.00,WUHU216HW,2013-02-20 18:56:00,
2013-02-20 13:01:00,55.9,47.0,29.66,ESE,113,8.2,8.2,72,0.00,,,0.00,WUHU216HW,2013-02-20 19:01:00,
2013-02-20 13:06:00,56.1,47.1,29.66,ENE,68,6.4,8.2,72,0.00,,,0.00,WUHU216HW,2013-02-20 19:06:00,
2013-02-20 13:11:00,56.1,47.1,29.66,ENE,68,8.5,8.5,72,0.00,,,0.00,WUHU216HW,2013-02-20 19:11:00,
2013-02-20 13:16:00,56.3,47.7,29.65,ENE,68,7.8,8.5,73,0.00,,,0.00,WUHU216HW,2013-02-20 19:16:00,
2013-02-20 13:21:00,56.4,47.8,29.64,ESE,113,7.3,8.5,73,0.00,,,0.00,WUHU216HW,2013-02-20 19:21:00,
2013-02-20 13:26:00,56.4,47.8,29.64,ESE,113,11.6,11.6,73,0.00,,,0.00,WUHU216HW,2013-02-20 19:26:00,
2013-02-20 13:31:00,56.4,47.8,29.63,ESE,113,6.7,11.6,73,0.00,,,0.00,WUHU216HW,2013-02-20 19:31:00,
2013-02-20 13:36:00,56.6,48.0,29.63,ESE,113,10.5,11.6,73,0.00,,,0.00,WUHU216HW,2013-02-20 19:36:00,
2013-02-20 13:41:00,56.6,48.3,29.63,SE,135,7.1,10.5,74,0.00,,,0.00,WUHU216HW,2013-02-20 19:41:00,
2013-02-20 13:47:00,56.4,48.2,29.63,ENE,68,6.2,9.1,74,0.00,,,0.00,WUHU216HW,2013-02-20 19:47:00,
2013-02-20 13:51:00,56.4,48.2,29.63,ESE,113,10.2,10.2,74,0.00,,,0.00,WUHU216HW,2013-02-20 19:51:00,
2013-02-20 13:56:00,56.8,48.5,29.62,ESE,113,7.1,10.2,74,0.00,,,0.00,WUHU216HW,2013-02-20 19:56:00,
2013-02-20 14:01:00,56.8,48.5,29.62,East,90,4.6,7.8,74,0.00,,,0.00,WUHU216HW,2013-02-20 20:01:00,
2013-02-20 14:06:00,56.8,48.5,29.61,ESE,113,6.9,7.1,74,0.00,,,0.00,WUHU216HW,2013-02-20 20:06:00,
2013-02-20 14:11:00,56.8,48.9,29.61,East,90,8.2,8.7,75,0.00,,,0.00,WUHU216HW,2013-02-20 20:11:00,
2013-02-20 14:16:00,56.8,48.9,29.62,East,90,8.0,8.7,75,0.00,,,0.00,WUHU216HW,2013-02-20 20:16:00,
2013-02-20 14:21:00,56.6,49.1,29.62,ESE,113,6.9,8.2,76,0.00,,,0.00,WUHU216HW,2013-02-20 20:21:00,
2013-02-20 14:27:00,56.6,49.1,29.62,ENE,68,7.6,8.0,76,0.00,,,0.00,WUHU216HW,2013-02-20 20:27:00,
2013-02-20 14:31:00,56.4,48.9,29.62,ESE,113,4.0,7.6,76,0.00,,,0.00,WUHU216HW,2013-02-20 20:31:00,
2013-02-20 14:36:00,56.4,48.9,29.61,ENE,68,7.6,7.6,76,0.00,,,0.00,WUHU216HW,2013-02-20 20:36:00,
2013-02-20 14:42:00,56.4,49.2,29.60,ESE,113,4.6,8.5,77,0.00,,,0.00,WUHU216HW,2013-02-20 20:42:00,
2013-02-20 14:47:00,56.4,49.2,29.60,ENE,68,6.4,8.5,77,0.00,,,0.00,WUHU216HW,2013-02-20 20:47:00,
2013-02-20 14:52:00,56.3,49.4,29.60,East,90,6.9,10.0,78,0.00,,,0.00,WUHU216HW,2013-02-20 20:52:00,
2013-02-20 14:57:00,56.3,49.4,29.60,ESE,113,8.7,12.5,78,0.00,,,0.00,WUHU216HW,2013-02-20 20:57:00,
2013-02-20 15:02:00,56.1,49.2,29.60,ENE,68,11.4,14.3,78,0.00,,,0.00,WUHU216HW,2013-02-20 21:02:00,
2013-02-20 15:07:00,56.1,49.6,29.59,ENE,68,9.6,14.3,79,0.00,,,0.00,WUHU216HW,2013-02-20 21:07:00,
2013-02-20 15:12:00,56.1,49.6,29.59,ESE,113,9.3,9.8,79,0.00,,,0.00,WUHU216HW,2013-02-20 21:12:00,
2013-02-20 15:17:00,56.1,50.0,29.59,East,90,14.5,14.5,80,0.00,,,0.00,WUHU216HW,2013-02-20 21:17:00,
2013-02-20 15:22:00,56.1,50.0,29.58,ESE,113,7.1,14.5,80,0.00,,,0.00,WUHU216HW,2013-02-20 21:22:00,
2013-02-20 15:27:00,56.1,50.0,29.58,East,90,6.4,12.3,80,0.00,,,0.00,WUHU216HW,2013-02-20 21:27:00,
2013-02-20 15:32:00,56.1,50.0,29.58,East,90,9.8,12.3,80,0.00,,,0.00,WUHU216HW,2013-02-20 21:32:00,
2013-02-20 15:37:00,56.1,50.0,29.58,East,90,7.1,9.8,80,0.00,,,0.00,WUHU216HW,2013-02-20 21:37:00,
2013-02-20 15:42:00,56.1,50.3,29.58,ESE,113,7.6,8.9,81,0.00,,,0.00,WUHU216HW,2013-02-20 21:42:00,
2013-02-20 15:47:00,56.1,50.3,29.57,ESE,113,3.1,8.9,81,0.00,,,0.00,WUHU216HW,2013-02-20 21:47:00,
2013-02-20 15:52:00,56.3,50.5,29.57,ENE,68,6.9,8.0,81,0.00,,,0.00,WUHU216HW,2013-02-20 21:52:00,
2013-02-20 15:57:00,56.1,50.3,29.57,East,90,7.3,7.6,81,0.00,,,0.00,WUHU216HW,2013-02-20 21:57:00,
2013-02-20 16:02:00,56.1,50.3,29.57,ENE,68,8.5,9.3,81,0.00,,,0.00,WUHU216HW,2013-02-20 22:02:00,
2013-02-20 16:07:00,55.9,50.1,29.57,ESE,113,0.0,9.3,81,0.00,,,0.00,WUHU216HW,2013-02-20 22:07:00,
2013-02-20 16:12:00,55.9,50.1,29.57,ESE,113,1.1,8.5,81,0.00,,,0.00,WUHU216HW,2013-02-20 22:12:00,
2013-02-20 16:17:00,55.5,49.7,29.57,ENE,68,2.4,3.5,81,0.00,,,0.00,WUHU216HW,2013-02-20 22:17:00,
2013-02-20 16:22:00,55.2,49.4,29.57,ESE,113,7.6,7.6,81,0.00,,,0.00,WUHU216HW,2013-02-20 22:22:00,
2013-02-20 16:27:00,55.2,49.4,29.56,ESE,113,3.1,7.6,81,0.00,,,0.00,WUHU216HW,2013-02-20 22:27:00,
2013-02-20 16:32:00,55.0,49.2,29.56,ESE,113,3.8,7.6,81,0.00,,,0.00,WUHU216HW,2013-02-20 22:32:00,
2013-02-20 16:37:00,54.8,49.1,29.57,ENE,68,1.3,3.8,81,0.00,,,0.00,WUHU216HW,2013-02-20 22:37:00,
2013-02-20 16:42:00,54.6,49.2,29.56,ESE,113,5.8,5.8,82,0.00,,,0.00,WUHU216HW,2013-02-20 22:42:00,
2013-02-20 16:48:00,54.5,49.2,29.56,ESE,113,6.2,6.2,83,0.00,,,0.00,WUHU216HW,2013-02-20 22:48:00,
2013-02-20 16:53:00,54.5,49.4,29.56,ESE,113,5.1,7.1,83,0.00,,,0.00,WUHU216HW,2013-02-20 22:53:00,
2013-02-20 16:58:00,54.3,49.2,29.56,East,90,4.9,9.3,83,0.00,,,0.00,WUHU216HW,2013-02-20 22:58:00,
2013-02-20 17:03:00,54.1,49.3,29.56,ENE,68,6.0,9.3,84,0.00,,,0.00,WUHU216HW,2013-02-20 23:03:00,
2013-02-20 17:08:00,54.1,49.3,29.55,ENE,68,7.3,8.0,84,0.00,,,0.00,WUHU216HW,2013-02-20 23:08:00,
2013-02-20 17:13:00,54.1,49.3,29.55,ENE,68,3.3,7.3,84,0.00,,,0.00,WUHU216HW,2013-02-20 23:13:00,
2013-02-20 17:18:00,53.9,49.2,29.55,ENE,68,6.9,7.1,84,0.00,,,0.00,WUHU216HW,2013-02-20 23:18:00,
2013-02-20 17:23:00,53.9,49.2,29.55,ENE,68,4.9,6.9,84,0.00,,,0.00,WUHU216HW,2013-02-20 23:23:00,
2013-02-20 17:28:00,53.7,49.3,29.55,ESE,113,4.2,8.5,85,0.00,,,0.00,WUHU216HW,2013-02-20 23:28:00,
2013-02-20 17:33:00,53.7,49.3,29.54,ESE,113,7.8,8.5,85,0.00,,,0.00,WUHU216HW,2013-02-20 23:33:00,
2013-02-20 17:39:00,53.7,49.3,29.55,East,90,3.5,7.8,85,0.00,,,0.00,WUHU216HW,2013-02-20 23:39:00,
2013-02-20 17:44:00,53.7,49.6,29.54,ESE,113,4.6,6.7,86,0.00,,,0.00,WUHU216HW,2013-02-20 23:44:00,
2013-02-20 17:49:00,53.7,49.6,29.54,ESE,113,2.9,6.4,86,0.00,,,0.00,WUHU216HW,2013-02-20 23:49:00,
2013-02-20 17:54:00,53.7,49.6,29.54,East,90,8.7,8.7,86,0.00,,,0.00,WUHU216HW,2013-02-20 23:54:00,
2013-02-20 17:59:00,53.7,49.9,29.54,ESE,113,3.5,8.7,87,0.00,,,0.00,WUHU216HW,2013-02-20 23:59:00,
2013-02-20 18:04:00,53.7,49.9,29.53,East,90,1.1,8.7,87,0.00,,,0.00,WUHU216HW,2013-02-21 00:04:00,
2013-02-20 18:09:00,53.7,49.9,29.53,ESE,113,5.5,5.5,87,0.00,,,0.00,WUHU216HW,2013-02-21 00:09:00,
2013-02-20 18:14:00,53.7,49.9,29.53,East,90,8.2,8.2,87,0.00,,,0.00,WUHU216HW,2013-02-21 00:14:00,
2013-02-20 18:19:00,53.7,49.9,29.52,East,90,7.3,9.3,87,0.00,,,0.00,WUHU216HW,2013-02-21 00:19:00,
2013-02-20 18:24:00,53.9,50.1,29.52,ESE,113,4.4,9.3,87,0.00,,,0.00,WUHU216HW,2013-02-21 00:24:00,
2013-02-20 18:29:00,53.9,50.1,29.51,ESE,113,7.1,7.3,87,0.00,,,0.00,WUHU216HW,2013-02-21 00:29:00,
2013-02-20 18:34:00,53.9,50.4,29.51,East,90,4.9,7.6,88,0.00,,,0.00,WUHU216HW,2013-02-21 00:34:00,
2013-02-20 18:39:00,53.9,50.4,29.51,East,90,8.2,8.2,88,0.00,,,0.00,WUHU216HW,2013-02-21 00:39:00,
2013-02-20 18:44:00,53.9,50.4,29.51,East,90,5.1,9.6,88,0.00,,,0.00,WUHU216HW,2013-02-21 00:44:00,
2013-02-20 18:49:00,53.9,50.6,29.51,ESE,113,2.6,9.6,88,0.00,,,0.00,WUHU216HW,2013-02-21 00:49:00,
2013-02-20 18:54:00,54.1,50.6,29.51,East,90,2.9,6.7,88,0.00,,,0.00,WUHU216HW,2013-02-21 00:54:00,
2013-02-20 18:59:00,54.1,50.6,29.51,East,90,1.5,2.9,88,0.00,,,0.00,WUHU216HW,2013-02-21 00:59:00,
2013-02-20 19:04:00,54.1,50.8,29.51,ESE,113,6.4,6.4,88,0.00,,,0.00,WUHU216HW,2013-02-21 01:04:00,
2013-02-20 19:09:00,54.3,51.1,29.51,ESE,113,6.9,10.7,89,0.00,,,0.00,WUHU216HW,2013-02-21 01:09:00,
2013-02-20 19:14:00,54.3,51.1,29.52,East,90,7.3,10.7,89,0.00,,,0.00,WUHU216HW,2013-02-21 01:14:00,
2013-02-20 19:19:00,54.5,51.2,29.51,ENE,68,6.4,7.8,89,0.00,,,0.00,WUHU216HW,2013-02-21 01:19:00,
2013-02-20 19:24:00,54.6,51.4,29.51,East,90,6.4,6.4,89,0.00,,,0.00,WUHU216HW,2013-02-21 01:24:00,
2013-02-20 19:29:00,54.6,51.4,29.50,ENE,68,4.0,6.4,89,0.00,,,0.00,WUHU216HW,2013-02-21 01:29:00,
2013-02-20 19:34:00,54.8,51.6,29.50,ESE,113,4.6,6.9,89,0.00,,,0.00,WUHU216HW,2013-02-21 01:34:00,
2013-02-20 19:39:00,55.0,51.8,29.50,East,90,6.0,6.9,89,0.00,,,0.00,WUHU216HW,2013-02-21 01:39:00,
2013-02-20 19:44:00,55.0,51.8,29.49,ESE,113,6.7,6.7,89,0.00,,,0.00,WUHU216HW,2013-02-21 01:44:00,
2013-02-20 19:49:00,55.2,52.0,29.50,East,90,5.8,6.7,89,0.00,,,0.00,WUHU216HW,2013-02-21 01:49:00,
2013-02-20 19:54:00,55.4,52.1,29.50,East,90,6.4,8.5,89,0.00,,,0.00,WUHU216HW,2013-02-21 01:54:00,
2013-02-20 19:59:00,55.5,52.3,29.50,ESE,113,4.6,8.5,89,0.00,,,0.00,WUHU216HW,2013-02-21 01:59:00,
2013-02-20 20:04:00,55.9,52.8,29.50,East,90,8.9,8.9,90,0.00,,,0.00,WUHU216HW,2013-02-21 02:04:00,
2013-02-20 20:09:00,56.1,53.2,29.49,ESE,113,10.5,10.5,90,0.00,,,0.00,WUHU216HW,2013-02-21 02:09:00,
2013-02-20 20:14:00,56.3,53.4,29.49,ESE,113,8.7,10.5,90,0.00,,,0.00,WUHU216HW,2013-02-21 02:14:00,
2013-02-20 20:19:00,56.4,53.6,29.49,ENE,68,6.4,11.4,90,0.00,,,0.00,WUHU216HW,2013-02-21 02:19:00,
2013-02-20 20:25:00,56.4,53.6,29.48,ENE,68,6.9,11.4,90,0.00,,,0.00,WUHU216HW,2013-02-21 02:25:00,
2013-02-20 20:30:00,56.8,53.9,29.48,ENE,68,7.1,10.9,90,0.00,,,0.00,WUHU216HW,2013-02-21 02:30:00,
2013-02-20 20:35:00,57.0,54.4,29.47,ENE,68,9.6,9.6,91,0.00,,,0.00,WUHU216HW,2013-02-21 02:35:00,
2013-02-20 20:40:00,57.0,54.4,29.47,ENE,68,9.6,9.6,91,0.00,,,0.00,WUHU216HW,2013-02-21 02:40:00,
2013-02-20 20:45:00,57.0,54.4,29.47,East,90,6.7,9.6,91,0.00,,,0.00,WUHU216HW,2013-02-21 02:45:00,
2013-02-20 20:50:00,57.0,54.4,29.47,ENE,68,8.2,8.2,91,0.00,,,0.00,WUHU216HW,2013-02-21 02:50:00,
2013-02-20 20:55:00,57.3,54.7,29.46,SSE,158,5.1,11.1,91,0.00,,,0.00,WUHU216HW,2013-02-21 02:55:00,
2013-02-20 21:00:00,57.3,54.7,29.45,East,90,7.1,11.1,91,0.00,,,0.00,WUHU216HW,2013-02-21 03:00:00,
2013-02-20 21:05:00,57.5,54.9,29.45,ESE,113,7.8,14.7,91,0.00,,,0.00,WUHU216HW,2013-02-21 03:05:00,
2013-02-20 21:10:00,57.7,55.1,29.45,ENE,68,8.0,14.7,91,0.00,,,0.00,WUHU216HW,2013-02-21 03:10:00,
2013-02-20 21:15:00,57.9,55.3,29.45,ENE,68,8.5,9.8,91,0.00,,,0.00,WUHU216HW,2013-02-21 03:15:00,
2013-02-20 21:20:00,57.9,55.3,29.44,ESE,113,10.2,10.2,91,0.00,,,0.00,WUHU216HW,2013-02-21 03:20:00,
2013-02-20 21:25:00,58.2,55.6,29.44,ESE,113,3.8,12.9,91,0.00,,,0.00,WUHU216HW,2013-02-21 03:25:00,
2013-02-20 21:30:00,58.6,55.6,29.44,ESE,113,11.8,12.9,91,0.00,,,0.00,WUHU216HW,2013-02-21 03:30:00,
2013-02-20 21:35:00,58.8,56.2,29.44,ESE,113,9.8,11.8,91,0.00,,,0.00,WUHU216HW,2013-02-21 03:35:00,
2013-02-20 21:40:00,58.8,56.5,29.43,East,90,7.8,12.7,92,0.00,,,0.00,WUHU216HW,2013-02-21 03:40:00,
2013-02-20 21:45:00,59.0,56.6,29.43,East,90,8.2,12.7,92,0.00,,,0.00,WUHU216HW,2013-02-21 03:45:00,
2013-02-20 21:50:00,59.3,57.0,29.43,SE,135,15.8,15.8,92,0.00,,,0.00,WUHU216HW,2013-02-21 03:50:00,
2013-02-20 21:55:00,59.5,57.2,29.43,East,90,7.8,15.8,92,0.00,,,0.00,WUHU216HW,2013-02-21 03:55:00,
2013-02-20 22:00:00,59.9,57.5,29.43,East,90,10.9,15.8,92,0.00,,,0.00,WUHU216HW,2013-02-21 04:00:00,
2013-02-20 22:05:00,60.0,57.7,29.43,ESE,113,10.7,12.3,92,0.00,,,0.00,WUHU216HW,2013-02-21 04:05:00,
2013-02-20 22:10:00,60.4,58.1,29.43,SE,135,11.4,13.1,92,0.00,,,0.00,WUHU216HW,2013-02-21 04:10:00,
2013-02-20 22:15:00,60.6,58.3,29.43,ESE,113,6.9,13.1,92,0.00,,,0.00,WUHU216HW,2013-02-21 04:15:00,
2013-02-20 22:20:00,60.6,58.3,29.43,ESE,113,7.3,11.1,92,0.00,,,0.00,WUHU216HW,2013-02-21 04:20:00,
2013-02-20 22:25:00,60.9,58.6,29.43,ESE,113,11.6,11.6,92,0.00,,,0.00,WUHU216HW,2013-02-21 04:25:00,
2013-02-20 22:30:00,61.3,59.0,29.43,ESE,113,6.9,11.6,92,0.00,,,0.00,WUHU216HW,2013-02-21 04:30:00,
2013-02-20 22:35:00,61.3,59.0,29.42,ENE,68,12.9,12.9,92,0.00,,,0.00,WUHU216HW,2013-02-21 04:35:00,
2013-02-20 22:40:00,61.5,59.2,29.42,ESE,113,8.5,12.9,92,0.00,,,0.00,WUHU216HW,2013-02-21 04:40:00,
2013-02-20 22:45:00,61.5,59.2,29.43,ESE,113,8.0,13.4,92,0.00,,,0.00,WUHU216HW,2013-02-21 04:45:00,
2013-02-20 22:50:00,61.7,59.3,29.42,ESE,113,7.1,13.4,92,0.00,,,0.00,WUHU216HW,2013-02-21 04:50:00,
2013-02-20 22:55:00,61.7,59.3,29.42,SE,135,7.1,8.0,92,0.00,,,0.00,WUHU216HW,2013-02-21 04:55:00,
2013-02-20 23:00:00,61.7,59.3,29.42,SE,135,6.9,10.5,92,0.00,,,0.00,WUHU216HW,2013-02-21 05:00:00,
2013-02-20 23:05:00,61.8,59.5,29.42,SE,135,10.9,12.7,92,0.00,,,0.00,WUHU216HW,2013-02-21 05:05:00,
2013-02-20 23:10:00,61.8,59.5,29.42,ESE,113,8.2,12.7,92,0.00,,,0.00,WUHU216HW,2013-02-21 05:10:00,
2013-02-20 23:15:00,62.0,59.7,29.42,SE,135,7.3,10.9,92,0.00,,,0.00,WUHU216HW,2013-02-21 05:15:00,
2013-02-20 23:20:00,62.2,59.9,29.41,SE,135,3.1,10.0,92,0.00,,,0.00,WUHU216HW,2013-02-21 05:20:00,
2013-02-20 23:25:00,62.4,60.1,29.41,East,90,12.3,12.3,92,0.00,,,0.00,WUHU216HW,2013-02-21 05:25:00,
2013-02-20 23:30:00,62.7,60.4,29.41,ESE,113,7.1,12.3,92,0.00,,,0.00,WUHU216HW,2013-02-21 05:30:00,
2013-02-20 23:35:00,62.9,60.6,29.41,ESE,113,10.2,12.9,92,0.00,,,0.00,WUHU216HW,2013-02-21 05:35:00,
2013-02-20 23:40:00,63.1,60.8,29.41,East,90,9.3,12.9,92,0.00,,,0.00,WUHU216HW,2013-02-21 05:40:00,
2013-02-20 23:45:00,63.1,60.8,29.41,ESE,113,6.9,10.2,92,0.00,,,0.00,WUHU216HW,2013-02-21 05:45:00,
2013-02-20 23:50:00,63.1,60.8,29.40,SE,135,4.9,6.9,92,0.00,,,0.00,WUHU216HW,2013-02-21 05:50:00,
2013-02-20 23:55:00,63.3,61.0,29.40,East,90,2.4,7.1,92,0.00,,,0.00,WUHU216HW,2013-02-21 05:55:00,